sat.trackr.live / text

‹ back to catalog

DX1

NORAD 40071 · 2014-037C

PAYLOAD ACTIVE UNKNOWN

§ Identity

Operator
Country
CIS
Launch date
2014-07-08
Launch site
TYMSC
Launch vehicle
Mass (kg)
RCS (m²)
0.34

External: N2YO · Heavens-Above · Gunter

§ Orbital elements

Epoch: 2026-05-25T04:36:47.909088Z

Period
96.65 min
Inclination
98.3856°
Eccentricity
0.0007212
Mean motion
14.89904435 rev/d
Perigee alt
593.2 km
Apogee alt
603.3 km
Semi-major
6,976.4 km
B*
2.1844e-4
RAAN
105.5028°
Arg perigee
0.4929°
Mean anomaly
359.6293°
Rev number
64,268

§ Raw data

DX11 40071U 14037C   26145.19222117  .00002039  00000+0  21844-3 0  99952 40071  98.3856 105.5028 0007212   0.4929 359.6293 14.89904435642680

JSON: /api/v1/satellites/40071 · /tle

For live sub-satellite position, see the globe view (requires WebGL).

§ Visibility from observer

Set your observer location to see the next 7 days of passes ≥ 10°. The values pass through the URL so the page stays shareable.

No JS? Fill the form by hand. The geolocation button needs JavaScript.

§ Radio — SatNOGS DB

ModeDescriptionDownlinkUplink
GFSK 9k6 FSK TLM 438.225 MHz
FM Mode S 2.270 GHz
GFSK PE0SAT - 9k6 GFSK TLM 438.226 MHz

3 transmitters · refreshed weekly from db.satnogs.org